Time,TemperatureF,DewpointF,PressureIn,WindDirection,WindDirectionDegrees,WindSpeedMPH,WindSpeedGustMPH,Humidity,HourlyPrecipIn,Conditions,Clouds,dailyrainin,SoftwareType,DateUTC
2013-01-23 00:02:00,24.0,-9.0,-100.00,South,180,6.0,13.0,22,0.00,,,-99.99,,2013-01-23 07:02:00,
2013-01-23 00:12:00,23.0,-10.0,-100.00,South,185,6.0,11.0,21,0.00,,,-99.99,,2013-01-23 07:12:00,
2013-01-23 00:22:00,22.0,-11.0,-100.00,South,190,6.0,9.0,21,0.00,,,-99.99,,2013-01-23 07:22:00,
2013-01-23 00:33:00,26.0,-9.0,-100.00,SE,135,9.0,12.0,21,0.00,,,-99.99,,2013-01-23 07:33:00,
2013-01-23 00:42:00,24.0,-10.0,-100.00,SSE,160,5.0,12.0,21,0.00,,,-99.99,,2013-01-23 07:42:00,
2013-01-23 00:52:00,23.0,-11.0,-100.00,SSE,165,6.0,8.0,21,0.00,,,-99.99,,2013-01-23 07:52:00,
2013-01-23 01:02:00,22.0,-12.0,-100.00,South,175,6.0,9.0,21,0.00,,,-99.99,,2013-01-23 08:02:00,
2013-01-23 01:13:00,21.0,-12.0,-100.00,South,190,7.0,8.0,21,0.00,,,-99.99,,2013-01-23 08:13:00,
2013-01-23 01:22:00,22.0,-11.0,-100.00,South,170,6.0,8.0,21,0.00,,,-99.99,,2013-01-23 08:22:00,
2013-01-23 01:33:00,21.0,-12.0,-100.00,South,185,6.0,8.0,21,0.00,,,-99.99,,2013-01-23 08:33:00,
2013-01-23 01:43:00,20.0,-12.0,-100.00,SSE,165,6.0,7.0,22,0.00,,,-99.99,,2013-01-23 08:43:00,
2013-01-23 01:52:00,20.0,-12.0,-100.00,SSE,160,6.0,9.0,22,0.00,,,-99.99,,2013-01-23 08:52:00,
2013-01-23 02:03:00,20.0,-12.0,-100.00,South,180,6.0,9.0,22,0.00,,,-99.99,,2013-01-23 09:03:00,
2013-01-23 02:12:00,21.0,-11.0,-100.00,SSE,155,4.0,7.0,22,0.00,,,-99.99,,2013-01-23 09:12:00,
2013-01-23 02:22:00,21.0,-11.0,-100.00,SE,145,6.0,7.0,22,0.00,,,-99.99,,2013-01-23 09:22:00,
2013-01-23 02:32:00,21.0,-12.0,-100.00,SSW,195,4.0,9.0,22,0.00,,,-99.99,,2013-01-23 09:32:00,
2013-01-23 02:43:00,21.0,-11.0,-100.00,SSE,155,4.0,7.0,22,0.00,,,-99.99,,2013-01-23 09:43:00,
2013-01-23 02:52:00,20.0,-12.0,-100.00,SSE,155,4.0,7.0,22,0.00,,,-99.99,,2013-01-23 09:52:00,
2013-01-23 03:03:00,20.0,-12.0,-100.00,SE,140,3.0,5.0,22,0.00,,,-99.99,,2013-01-23 10:03:00,
2013-01-23 03:12:00,20.0,-12.0,-100.00,SSE,160,2.0,4.0,22,0.00,,,-99.99,,2013-01-23 10:12:00,
2013-01-23 03:23:00,22.0,-11.0,-100.00,East,95,2.0,6.0,21,0.00,,,-99.99,,2013-01-23 10:23:00,
2013-01-23 03:33:00,22.0,-11.0,-100.00,ENE,60,1.0,4.0,21,0.00,,,-99.99,,2013-01-23 10:33:00,
2013-01-23 03:43:00,20.0,-13.0,-100.00,SE,145,1.0,3.0,21,0.00,,,-99.99,,2013-01-23 10:43:00,
2013-01-23 03:52:00,20.0,-12.0,-100.00,NE,40,2.0,4.0,21,0.00,,,-99.99,,2013-01-23 10:52:00,
2013-01-23 04:02:00,22.0,-11.0,-100.00,East,85,2.0,5.0,21,0.00,,,-99.99,,2013-01-23 11:02:00,
2013-01-23 04:12:00,22.0,-11.0,-100.00,NE,40,4.0,7.0,22,0.00,,,-99.99,,2013-01-23 11:12:00,
2013-01-23 04:22:00,22.0,-11.0,-100.00,NE,35,3.0,8.0,22,0.00,,,-99.99,,2013-01-23 11:22:00,
2013-01-23 04:33:00,22.0,-11.0,-100.00,NE,55,6.0,9.0,22,0.00,,,-99.99,,2013-01-23 11:33:00,
2013-01-23 04:43:00,21.0,-11.0,-100.00,NE,45,4.0,7.0,22,0.00,,,-99.99,,2013-01-23 11:43:00,
2013-01-23 04:52:00,22.0,-11.0,-100.00,NE,50,5.0,10.0,22,0.00,,,-99.99,,2013-01-23 11:52:00,
2013-01-23 05:03:00,22.0,-11.0,-100.00,NE,40,5.0,16.0,21,0.00,,,-99.99,,2013-01-23 12:03:00,
2013-01-23 05:12:00,22.0,-11.0,-100.00,NE,40,7.0,12.0,21,0.00,,,-99.99,,2013-01-23 12:12:00,
2013-01-23 05:22:00,22.0,-11.0,-100.00,NE,50,7.0,14.0,21,0.00,,,-99.99,,2013-01-23 12:22:00,
2013-01-23 05:33:00,23.0,-11.0,-100.00,North,5,9.0,13.0,21,0.00,,,-99.99,,2013-01-23 12:33:00,
2013-01-23 05:43:00,25.0,-10.0,-100.00,NNE,25,9.0,15.0,20,0.00,,,-99.99,,2013-01-23 12:43:00,
2013-01-23 05:53:00,26.0,-11.0,-100.00,NNE,25,9.0,16.0,18,0.00,,,-99.99,,2013-01-23 12:53:00,
2013-01-23 06:03:00,26.0,-12.0,-100.00,NNE,25,9.0,15.0,18,0.00,,,-99.99,,2013-01-23 13:03:00,
2013-01-23 06:13:00,25.0,-13.0,-100.00,NNE,30,5.0,16.0,17,0.00,,,-99.99,,2013-01-23 13:13:00,
2013-01-23 06:23:00,24.0,-14.0,-100.00,NNE,30,6.0,12.0,18,0.00,,,-99.99,,2013-01-23 13:23:00,
2013-01-23 06:33:00,25.0,-13.0,-100.00,NNE,25,7.0,12.0,17,0.00,,,-99.99,,2013-01-23 13:33:00,
2013-01-23 06:42:00,26.0,-13.0,-100.00,NE,40,7.0,12.0,17,0.00,,,-99.99,,2013-01-23 13:42:00,
2013-01-23 06:52:00,26.0,-13.0,-100.00,NE,45,7.0,11.0,16,0.00,,,-99.99,,2013-01-23 13:52:00,
2013-01-23 07:02:00,26.0,-14.0,-100.00,NNE,25,6.0,11.0,16,0.00,,,-99.99,,2013-01-23 14:02:00,
2013-01-23 07:12:00,26.0,-14.0,-100.00,NNE,15,6.0,10.0,16,0.00,,,-99.99,,2013-01-23 14:12:00,
2013-01-23 07:23:00,26.0,-15.0,-100.00,NNE,25,6.0,12.0,15,0.00,,,-99.99,,2013-01-23 14:23:00,
2013-01-23 07:33:00,26.0,-15.0,-100.00,NE,35,7.0,10.0,15,0.00,,,-99.99,,2013-01-23 14:33:00,
2013-01-23 07:42:00,26.0,-15.0,-100.00,NNE,15,7.0,14.0,15,0.00,,,-99.99,,2013-01-23 14:42:00,
2013-01-23 07:53:00,27.0,-15.0,-100.00,NNE,25,7.0,12.0,14,0.00,,,-99.99,,2013-01-23 14:53:00,
2013-01-23 08:03:00,28.0,-16.0,-100.00,NNE,20,7.0,15.0,14,0.00,,,-99.99,,2013-01-23 15:03:00,
2013-01-23 08:12:00,28.0,-16.0,-100.00,NNE,15,9.0,12.0,13,0.00,,,-99.99,,2013-01-23 15:12:00,
2013-01-23 08:23:00,29.0,-16.0,-100.00,North,10,10.0,14.0,13,0.00,,,-99.99,,2013-01-23 15:23:00,
2013-01-23 08:33:00,29.0,-17.0,-100.00,North,0,7.0,15.0,12,0.00,,,-99.99,,2013-01-23 15:33:00,
2013-01-23 08:43:00,29.0,-17.0,-100.00,NE,40,8.0,13.0,12,0.00,,,-99.99,,2013-01-23 15:43:00,
2013-01-23 08:53:00,29.0,-17.0,-100.00,NNE,25,7.0,16.0,11,0.00,,,-99.99,,2013-01-23 15:53:00,
2013-01-23 09:03:00,30.0,-17.0,-100.00,NE,40,6.0,11.0,11,0.00,,,-99.99,,2013-01-23 16:03:00,
2013-01-23 09:12:00,31.0,-17.0,-100.00,NNE,30,6.0,11.0,11,0.00,,,-99.99,,2013-01-23 16:12:00,
2013-01-23 09:23:00,31.0,-17.0,-100.00,NNE,30,7.0,11.0,11,0.00,,,-99.99,,2013-01-23 16:23:00,
2013-01-23 09:33:00,32.0,-16.0,-100.00,NE,50,6.0,9.0,11,0.00,,,-99.99,,2013-01-23 16:33:00,
2013-01-23 09:42:00,32.0,-17.0,-100.00,NNE,20,7.0,12.0,10,0.00,,,-99.99,,2013-01-23 16:42:00,
2013-01-23 09:52:00,33.0,-17.0,-100.00,NE,35,7.0,12.0,10,0.00,,,-99.99,,2013-01-23 16:52:00,
2013-01-23 10:03:00,33.0,-17.0,-100.00,NNE,20,6.0,14.0,10,0.00,,,-99.99,,2013-01-23 17:03:00,
2013-01-23 10:12:00,34.0,-17.0,-100.00,NNE,25,7.0,14.0,10,0.00,,,-99.99,,2013-01-23 17:12:00,
2013-01-23 10:22:00,34.0,-16.0,-100.00,North,5,7.0,15.0,10,0.00,,,-99.99,,2013-01-23 17:22:00,
2013-01-23 10:33:00,35.0,-16.0,-100.00,NNE,20,8.0,14.0,10,0.00,,,-99.99,,2013-01-23 17:33:00,
2013-01-23 10:42:00,35.0,-16.0,-100.00,NNE,25,7.0,16.0,10,0.00,,,-99.99,,2013-01-23 17:42:00,
2013-01-23 10:52:00,35.0,-16.0,-100.00,NNE,25,6.0,12.0,10,0.00,,,-99.99,,2013-01-23 17:52:00,
2013-01-23 11:03:00,36.0,-16.0,-100.00,NNE,20,7.0,16.0,9,0.00,,,-99.99,,2013-01-23 18:03:00,
2013-01-23 11:12:00,37.0,-15.0,-100.00,NE,35,9.0,18.0,9,0.00,,,-99.99,,2013-01-23 18:12:00,
2013-01-23 11:23:00,36.0,-15.0,-100.00,North,0,7.0,15.0,9,0.00,,,-99.99,,2013-01-23 18:23:00,
2013-01-23 11:33:00,36.0,-15.0,-100.00,North,0,7.0,15.0,9,0.00,,,-99.99,,2013-01-23 18:33:00,
2013-01-23 11:43:00,38.0,-14.0,-100.00,North,0,6.0,16.0,9,0.00,,,-99.99,,2013-01-23 18:43:00,
2013-01-23 11:52:00,38.0,-14.0,-100.00,NNE,30,7.0,12.0,9,0.00,,,-99.99,,2013-01-23 18:52:00,
2013-01-23 12:03:00,38.0,-14.0,-100.00,NE,45,6.0,16.0,9,0.00,,,-99.99,,2013-01-23 19:03:00,
2013-01-23 12:13:00,38.0,-14.0,-100.00,North,10,4.0,17.0,9,0.00,,,-99.99,,2013-01-23 19:13:00,
2013-01-23 12:23:00,38.0,-14.0,-100.00,North,10,4.0,12.0,9,0.00,,,-99.99,,2013-01-23 19:23:00,
2013-01-23 12:33:00,39.0,-13.0,-100.00,NE,45,5.0,12.0,9,0.00,,,-99.99,,2013-01-23 19:33:00,
2013-01-23 12:43:00,39.0,-13.0,-100.00,North,0,5.0,12.0,9,0.00,,,-99.99,,2013-01-23 19:43:00,
2013-01-23 12:52:00,40.0,-13.0,-100.00,NE,35,6.0,11.0,9,0.00,,,-99.99,,2013-01-23 19:52:00,
2013-01-23 13:03:00,39.0,-13.0,-100.00,NE,50,6.0,11.0,9,0.00,,,-99.99,,2013-01-23 20:03:00,
2013-01-23 13:13:00,39.0,-13.0,-100.00,NNE,15,5.0,13.0,9,0.00,,,-99.99,,2013-01-23 20:13:00,
2013-01-23 13:23:00,39.0,-13.0,-100.00,NE,35,7.0,12.0,9,0.00,,,-99.99,,2013-01-23 20:23:00,
2013-01-23 13:33:00,39.0,-13.0,-100.00,NNE,30,7.0,11.0,9,0.00,,,-99.99,,2013-01-23 20:33:00,
2013-01-23 13:42:00,40.0,-13.0,-100.00,NNE,15,5.0,12.0,9,0.00,,,-99.99,,2013-01-23 20:42:00,
2013-01-23 13:53:00,39.0,-13.0,-100.00,NE,40,6.0,14.0,9,0.00,,,-99.99,,2013-01-23 20:53:00,
2013-01-23 14:03:00,40.0,-12.0,-100.00,NNE,30,6.0,9.0,9,0.00,,,-99.99,,2013-01-23 21:03:00,
2013-01-23 14:12:00,39.0,-13.0,-100.00,NNE,20,4.0,10.0,9,0.00,,,-99.99,,2013-01-23 21:12:00,
2013-01-23 14:23:00,38.0,-14.0,-100.00,ENE,60,5.0,10.0,10,0.00,,,-99.99,,2013-01-23 21:23:00,
2013-01-23 14:42:00,38.0,-14.0,-100.00,ESE,110,4.0,12.0,10,0.00,,,-99.99,,2013-01-23 21:42:00,
2013-01-23 14:52:00,37.0,-14.0,-100.00,East,85,5.0,10.0,10,0.00,,,-99.99,,2013-01-23 21:52:00,
2013-01-23 15:02:00,38.0,-13.0,-100.00,NE,50,2.0,9.0,10,0.00,,,-99.99,,2013-01-23 22:02:00,
2013-01-23 15:12:00,36.0,-14.0,-100.00,ESE,105,4.0,10.0,10,0.00,,,-99.99,,2013-01-23 22:12:00,
2013-01-23 15:23:00,36.0,-14.0,-100.00,NE,45,5.0,9.0,10,0.00,,,-99.99,,2013-01-23 22:23:00,
2013-01-23 15:33:00,36.0,-13.0,-100.00,ENE,65,3.0,9.0,11,0.00,,,-99.99,,2013-01-23 22:33:00,
2013-01-23 15:42:00,36.0,-13.0,-100.00,East,90,4.0,7.0,11,0.00,,,-99.99,,2013-01-23 22:42:00,
2013-01-23 15:52:00,35.0,-13.0,-100.00,ENE,60,3.0,9.0,11,0.00,,,-99.99,,2013-01-23 22:52:00,
2013-01-23 16:03:00,35.0,-12.0,-100.00,ENE,65,2.0,7.0,11,0.00,,,-99.99,,2013-01-23 23:03:00,
2013-01-23 16:12:00,35.0,-12.0,-100.00,ENE,65,2.0,7.0,11,0.00,,,-99.99,,2013-01-23 23:12:00,
2013-01-23 16:23:00,35.0,-12.0,-100.00,ESE,115,3.0,6.0,12,0.00,,,-99.99,,2013-01-23 23:23:00,
2013-01-23 16:33:00,35.0,-12.0,-100.00,SW,215,1.0,5.0,12,0.00,,,-99.99,,2013-01-23 23:33:00,
2013-01-23 16:43:00,33.0,-11.0,-100.00,SE,135,2.0,3.0,13,0.00,,,-99.99,,2013-01-23 23:43:00,
2013-01-23 16:52:00,31.0,-12.0,-100.00,SSW,205,2.0,4.0,14,0.00,,,-99.99,,2013-01-23 23:52:00,
2013-01-23 17:03:00,30.0,-12.0,-100.00,South,170,3.0,6.0,14,0.00,,,-99.99,,2013-01-24 00:03:00,
2013-01-23 17:12:00,29.0,-12.0,-100.00,South,185,4.0,7.0,15,0.00,,,-99.99,,2013-01-24 00:12:00,
2013-01-23 17:22:00,28.0,-13.0,-100.00,SSE,160,4.0,6.0,15,0.00,,,-99.99,,2013-01-24 00:22:00,
2013-01-23 17:32:00,28.0,-13.0,-100.00,South,190,4.0,6.0,15,0.00,,,-99.99,,2013-01-24 00:32:00,
2013-01-23 17:42:00,26.0,-13.0,-100.00,South,175,4.0,7.0,16,0.00,,,-99.99,,2013-01-24 00:42:00,
2013-01-23 17:53:00,27.0,-12.0,-100.00,SSE,165,5.0,6.0,17,0.00,,,-99.99,,2013-01-24 00:53:00,
2013-01-23 18:03:00,27.0,-12.0,-100.00,SSE,165,5.0,6.0,17,0.00,,,-99.99,,2013-01-24 01:03:00,
2013-01-23 18:12:00,27.0,-11.0,-100.00,SSE,150,5.0,6.0,18,0.00,,,-99.99,,2013-01-24 01:12:00,
2013-01-23 18:23:00,27.0,-11.0,-100.00,SSW,205,3.0,6.0,18,0.00,,,-99.99,,2013-01-24 01:23:00,
2013-01-23 18:33:00,27.0,-11.0,-100.00,South,185,1.0,4.0,18,0.00,,,-99.99,,2013-01-24 01:33:00,
2013-01-23 18:42:00,28.0,-10.0,-100.00,SW,215,1.0,3.0,18,0.00,,,-99.99,,2013-01-24 01:42:00,
2013-01-23 18:52:00,29.0,-10.0,-100.00,ESE,120,1.0,2.0,17,0.00,,,-99.99,,2013-01-24 01:52:00,
2013-01-23 19:02:00,27.0,-11.0,-100.00,South,180,3.0,4.0,18,0.00,,,-99.99,,2013-01-24 02:02:00,
2013-01-23 19:12:00,26.0,-11.0,-100.00,SSE,160,6.0,7.0,18,0.00,,,-99.99,,2013-01-24 02:12:00,
2013-01-23 19:22:00,26.0,-10.0,-100.00,SSE,160,6.0,7.0,19,0.00,,,-99.99,,2013-01-24 02:22:00,
2013-01-23 19:33:00,26.0,-10.0,-100.00,South,185,4.0,7.0,19,0.00,,,-99.99,,2013-01-24 02:33:00,
2013-01-23 19:42:00,26.0,-10.0,-100.00,South,185,4.0,7.0,19,0.00,,,-99.99,,2013-01-24 02:42:00,
2013-01-23 19:52:00,26.0,-10.0,-100.00,South,185,4.0,7.0,19,0.00,,,-99.99,,2013-01-24 02:52:00,
2013-01-23 20:02:00,25.0,-10.0,-100.00,SSW,195,4.0,7.0,20,0.00,,,-99.99,,2013-01-24 03:02:00,
2013-01-23 20:12:00,25.0,-10.0,-100.00,South,170,2.0,6.0,20,0.00,,,-99.99,,2013-01-24 03:12:00,
2013-01-23 20:22:00,25.0,-10.0,-100.00,SSW,205,4.0,6.0,20,0.00,,,-99.99,,2013-01-24 03:22:00,
2013-01-23 20:33:00,25.0,-10.0,-100.00,South,190,4.0,6.0,20,0.00,,,-99.99,,2013-01-24 03:33:00,
2013-01-23 20:43:00,25.0,-10.0,-100.00,South,180,5.0,6.0,20,0.00,,,-99.99,,2013-01-24 03:43:00,
2013-01-23 20:53:00,24.0,-10.0,-100.00,South,180,6.0,7.0,21,0.00,,,-99.99,,2013-01-24 03:53:00,
2013-01-23 21:02:00,25.0,-9.0,-100.00,SSE,150,6.0,9.0,21,0.00,,,-99.99,,2013-01-24 04:02:00,
2013-01-23 21:12:00,24.0,-9.0,-100.00,South,185,6.0,8.0,22,0.00,,,-99.99,,2013-01-24 04:12:00,
2013-01-23 21:22:00,25.0,-9.0,-100.00,South,175,4.0,10.0,21,0.00,,,-99.99,,2013-01-24 04:22:00,
2013-01-23 21:32:00,24.0,-9.0,-100.00,SSE,160,7.0,9.0,22,0.00,,,-99.99,,2013-01-24 04:32:00,
2013-01-23 21:42:00,24.0,-9.0,-100.00,SSE,165,6.0,11.0,22,0.00,,,-99.99,,2013-01-24 04:42:00,
2013-01-23 21:52:00,25.0,-8.0,-100.00,SE,145,6.0,7.0,23,0.00,,,-99.99,,2013-01-24 04:52:00,
2013-01-23 22:03:00,24.0,-8.0,-100.00,South,170,6.0,9.0,23,0.00,,,-99.99,,2013-01-24 05:03:00,
2013-01-23 22:12:00,23.0,-8.0,-100.00,South,185,6.0,9.0,24,0.00,,,-99.99,,2013-01-24 05:12:00,
2013-01-23 22:22:00,25.0,-7.0,-100.00,SSW,205,4.0,7.0,23,0.00,,,-99.99,,2013-01-24 05:22:00,
2013-01-23 22:33:00,24.0,-7.0,-100.00,South,185,5.0,6.0,24,0.00,,,-99.99,,2013-01-24 05:33:00,
2013-01-23 22:42:00,24.0,-7.0,-100.00,South,190,4.0,6.0,24,0.00,,,-99.99,,2013-01-24 05:42:00,
2013-01-23 22:52:00,24.0,-7.0,-100.00,South,185,4.0,6.0,24,0.00,,,-99.99,,2013-01-24 05:52:00,
2013-01-23 23:02:00,24.0,-8.0,-100.00,SSW,200,5.0,6.0,24,0.00,,,-99.99,,2013-01-24 06:02:00,
2013-01-23 23:12:00,23.0,-8.0,-100.00,South,185,4.0,6.0,24,0.00,,,-99.99,,2013-01-24 06:12:00,
2013-01-23 23:22:00,24.0,-8.0,-100.00,SW,215,2.0,4.0,24,0.00,,,-99.99,,2013-01-24 06:22:00,
2013-01-23 23:32:00,23.0,-8.0,-100.00,South,180,3.0,4.0,24,0.00,,,-99.99,,2013-01-24 06:32:00,
2013-01-23 23:42:00,24.0,-8.0,-100.00,South,190,2.0,4.0,24,0.00,,,-99.99,,2013-01-24 06:42:00,
2013-01-23 23:52:00,23.0,-8.0,-100.00,East,100,1.0,3.0,24,0.00,,,-99.99,,2013-01-24 06:52:00,